Regional Weather Roundup
Issued by NWS Goodland, KS

Home | Current Version | Previous Version | Text Only | Print | Product List | Glossary Off
Versions: 1 2 3 4 5 6 7 8 9 10 11 12 13 14 15 16 17 18 19 20 21 22 23 24 25 26 27 28 29 30 31 32 33 34 35 36 37 38 39 40 41 42 43 44 45 46 47 48 49 50

000
ASUS43 KGLD 030459
RWRGLD

GOODLAND FORECAST AREA HOURLY WEATHER ROUNDUP
NATIONAL WEATHER SERVICE GOODLAND KS
1000 PM MST MON MAR 02 2015

...OFFICIAL OBSERVATIONS...

CITY           SKY/WX    TMP DP  RH WIND       PRES   REMARKS
GOODLAND KS    MOCLDY    32  30  92 S25G32    29.57F WCI  19
HILL CITY KS   MOCLDY    29  23  78 S15       29.76F WCI  18
IMPERIAL NEB     N/A     31  27  85 SE13      29.60F FOG
MCCOOK NEB     CLOUDY    31  23  72 SE14      29.67F
AKRON CO       FAIR      26  26 100 CALM      29.54R FOG
BURLINGTON CO  FAIR      33  30  88 S17       29.55F
LIMON CO       FAIR      31  26  82 S13G20    29.56F
$$

...UNOFFICIAL OBSERVATIONS...

CITY           SKY/WX    TMP DP  RH WIND       PRES   REMARKS
COLBY KS       CLOUDY    34  34 100 S23G31    29.62F
GOVE KS          N/A     30  32 100 MISG        N/A
LENORA KS        N/A     29  32 100 S18         N/A  WCI  17
SHARON SPRINGS   N/A     34  31  90 S18         N/A
KIT CARSON CO    N/A     30  28  92 MISG        N/A
YUMA CO          N/A     29  26  89 E6          N/A
$$


USA.gov is the U.S. government's official web portal to all federal, state and local government web resources and services.